Location: Bakov nad Jizerou
(50.4784°N, 14.9394°E)
Time: 15:38:43
(UTC+00:00)

Cosmos 405 - Pass Details

Date: 16 June 2021
Orbit: 446 x 459 km, 81.3° (Epoch: 03 August)

Event Time Altitude Azimuth Distance (km) Brightness Sun altitude
Rises 20:53:48 0° 349° (NNW) 2,468 8.2 -11.0°
Reaches altitude 10° 20:55:54 10° 351° (N) 1,589 6.9 -11.1°
Maximum altitude 20:59:21 75° 77° (ENE) 469 2.9 -11.4°
Enters shadow 21:01:45 19° 162° (SSE) 1,147 4.3 -11.6°
